GW1914 Weather Reports


Display with metric or nautical units.
time (UTC)temp
F
wind
direction
speed
MPH
gust
MPH
rain 1hr
in
rain 24hr
in
rain mn
in
humidity
%
barometer
mb
20260510123531 45 258 0.0 3.0 0.00 0.00 0.00 92 1019.5
20260510123028 45 267 0.0 3.0 0.00 0.00 0.00 92 1019.7
20260510122538 45 240 0.0 3.0 0.00 0.00 0.00 92 1019.5
20260510122026 45 244 0.0 3.0 0.00 0.00 0.00 92 1019.7
20260510121524 45 246 0.0 3.0 0.00 0.00 0.00 92 1019.6
20260510121035 45 256 0.0 3.0 0.00 0.00 0.00 92 1019.6
20260510120525 45 281 1.0 3.0 0.00 0.00 0.00 92 1019.7
20260510120037 45 259 0.0 2.0 0.00 0.00 0.00 92 1019.6
20260510115528 45 268 0.0 3.0 0.00 0.00 0.00 92 1019.6
20260510115038 45 250 0.0 3.0 0.00 0.00 0.00 92 1019.6
20260510114537 46 276 1.0 3.0 0.00 0.00 0.00 91 1019.7
20260510114025 46 250 1.0 2.0 0.00 0.00 0.00 92 1019.7
20260510113536 46 252 0.0 1.0 0.00 0.00 0.00 92 1019.7
20260510113035 46 252 0.0 1.0 0.00 0.00 0.00 92 1019.7
20260510112520 46 252 0.0 2.0 0.00 0.00 0.00 91 1019.8
20260510112029 45 252 0.0 2.0 0.00 0.00 0.00 91 1019.7
20260510111525 46 245 0.0 2.0 0.00 0.00 0.00 91 1019.7
20260510111032 46 255 1.0 5.0 0.00 0.00 0.00 91 1019.8
20260510110522 46 241 2.0 5.0 0.00 0.00 0.00 91 1019.9
20260510110018 46 261 1.0 3.0 0.00 0.00 0.00 91 1019.8
20260510105529 46 258 0.0 3.0 0.00 0.00 0.00 91 1019.8
20260510105021 46 247 0.0 2.0 0.00 0.00 0.00 91 1019.8
20260510104537 46 242 0.0 0.0 0.00 0.00 0.00 91 1019.8
20260510104020 46 270 0.0 2.0 0.00 0.00 0.00 91 1019.8
20260510103532 46 267 0.0 3.0 0.00 0.00 0.00 91 1019.9
20260510103029 46 255 1.0 4.0 0.00 0.00 0.00 90 1019.7
20260510102521 46 240 1.0 4.0 0.00 0.00 0.00 90 1019.7
20260510102030 47 257 0.0 3.0 0.00 0.00 0.00 90 1019.7
20260510101528 46 242 0.0 3.0 0.00 0.00 0.00 90 1019.8
20260510101035 46 238 1.0 5.0 0.00 0.00 0.00 89 1019.8
20260510100525 46 246 2.0 5.0 0.00 0.00 0.00 89 1019.7
20260510100022 46 240 2.0 5.0 0.00 0.00 0.00 89 1019.8
20260510095531 47 250 3.0 5.0 0.00 0.00 0.00 89 1019.9
20260510095019 47 245 1.0 3.0 0.00 0.00 0.00 89 1019.9
20260510094543 47 257 1.0 4.0 0.00 0.00 0.00 89 1019.9
20260510094027 47 229 2.0 4.0 0.00 0.00 0.00 90 1019.9
20260510093536 47 229 2.0 4.0 0.00 0.00 0.00 89 1019.9
20260510093035 47 235 1.0 3.0 0.00 0.00 0.00 89 1020.0
20260510092523 47 217 1.0 3.0 0.00 0.00 0.00 88 1020.1
20260510092038 47 229 1.0 3.0 0.00 0.00 0.00 89 1020.1
20260510091536 47 242 0.0 2.0 0.00 0.00 0.00 89 1020.2
20260510091024 47 236 0.0 4.0 0.00 0.00 0.00 88 1020.2
20260510090536 47 245 0.0 5.0 0.00 0.00 0.00 87 1020.4
20260510090030 48 251 2.0 5.0 0.00 0.00 0.00 86 1020.4
20260510085537 48 242 2.0 4.0 0.00 0.00 0.00 87 1020.4
20260510085026 48 210 1.0 3.0 0.00 0.00 0.00 87 1020.6
20260510084523 48 230 0.0 4.0 0.00 0.00 0.00 87 1020.5
20260510084034 48 225 1.0 5.0 0.00 0.00 0.00 86 1020.4
20260510083523 49 232 2.0 5.0 0.00 0.00 0.00 85 1020.5
20260510083021 49 205 2.0 3.0 0.00 0.00 0.00 85 1020.4
20260510082527 49 213 1.0 4.0 0.00 0.00 0.00 84 1020.5
20260510082038 50 219 1.0 4.0 0.00 0.00 0.00 83 1020.6
20260510081539 50 176 1.0 3.0 0.00 0.00 0.00 86 1020.6
20260510081025 50 183 0.0 0.0 0.00 0.00 0.00 85 1020.6
20260510080539 49 245 0.0 1.0 0.00 0.00 0.00 85 1020.6
20260510080033 48 225 0.0 3.0 0.00 0.00 0.00 84 1020.5
20260510075521 48 226 1.0 4.0 0.00 0.00 0.00 84 1020.6
20260510075029 48 219 0.0 6.0 0.00 0.00 0.00 85 1020.6
20260510074526 48 234 2.0 7.0 0.00 0.00 0.00 85 1020.7
20260510074037 48 229 4.0 8.0 0.00 0.00 0.00 84 1020.8
20260510073528 48 20 1.0 3.0 0.00 0.00 0.00 84 1020.7
20260510073019 49 300 0.0 6.0 0.00 0.00 0.00 83 1020.6
20260510072531 50 281 1.0 8.0 0.00 0.00 0.00 81 1020.6
20260510072021 51 210 3.0 8.0 0.00 0.00 0.00 81 1020.6
20260510071537 51 215 2.0 5.0 0.00 0.00 0.00 80 1020.6
20260510071025 52 178 2.0 5.0 0.00 0.00 0.00 79 1020.4
20260510070520 52 91 1.0 4.0 0.00 0.00 0.00 80 1020.5
20260510070036 52 24 0.0 3.0 0.00 0.00 0.00 79 1020.6
20260510065527 52 45 0.0 5.0 0.00 0.00 0.00 81 1020.6
20260510065035 51 169 2.0 6.0 0.00 0.00 0.00 82 1020.6
20260510064530 51 199 0.0 0.0 0.00 0.00 0.00 82 1020.6
20260510064021 50 240 0.0 1.0 0.00 0.00 0.00 81 1020.7
20260510063530 50 240 0.0 3.0 0.00 0.00 0.00 80 1020.8
20260510063028 50 230 0.0 5.0 0.00 0.00 0.00 80 1020.8
20260510062536 50 213 2.0 5.0 0.00 0.00 0.00 80 1021.1
20260510062028 51 259 0.0 5.0 0.00 0.00 0.00 80 1021.2
20260510061527 51 253 1.0 5.0 0.00 0.00 0.00 80 1021.1
20260510061032 51 244 1.0 7.0 0.00 0.00 0.00 80 1021.0
20260510060543 51 242 2.0 7.0 0.00 0.00 0.00 79 1021.0
20260510060031 52 234 1.0 5.0 0.00 0.00 0.00 79 1021.0
20260510055522 51 252 2.0 5.0 0.00 0.00 0.00 80 1020.9
20260510055033 52 242 1.0 4.0 0.00 0.00 0.00 80 1021.0
20260510054538 52 221 1.0 4.0 0.00 0.00 0.00 79 1021.1
20260510054018 52 218 1.0 4.0 0.00 0.00 0.00 79 1021.1
20260510053530 52 224 2.0 5.0 0.00 0.00 0.00 77 1021.0
20260510053023 52 225 2.0 5.0 0.00 0.00 0.00 76 1021.1
20260510052534 53 246 3.0 5.0 0.00 0.00 0.00 77 1021.1
20260510052023 54 229 0.0 4.0 0.00 0.00 0.00 76 1021.2
20260510051530 54 237 1.0 4.0 0.00 0.00 0.00 74 1021.1
20260510051029 55 246 1.0 4.0 0.00 0.00 0.00 73 1021.1
20260510050540 55 167 1.0 6.0 0.00 0.00 0.00 72 1021.1
20260510050041 56 163 1.0 6.0 0.00 0.00 0.00 71 1021.2
20260510045526 56 31 0.0 3.0 0.00 0.00 0.00 74 1021.3
20260510045034 56 300 1.0 3.0 0.00 0.00 0.00 75 1021.3
20260510044535 56 219 0.0 4.0 0.00 0.00 0.00 74 1021.2
20260510044022 56 212 2.0 4.0 0.00 0.00 0.00 72 1021.3
20260510043532 56 180 0.0 3.0 0.00 0.00 0.00 72 1021.3
20260510043031 56 227 0.0 0.0 0.00 0.00 0.00 73 1021.3
20260510042539 56 242 0.0 3.0 0.00 0.00 0.00 73 1021.3
20260510042026 56 247 0.0 3.0 0.00 0.00 0.00 73 1021.4
20260510041525 57 261 0.0 2.0 0.00 0.00 0.00 70 1021.5
20260510041032 57 220 0.0 3.0 0.00 0.00 0.00 69 1021.4
20260510040522 57 219 0.0 3.0 0.00 0.00 0.00 71 1021.3
20260510040040 56 223 1.0 4.0 0.00 0.00 0.00 71 1021.2
20260510035526 57 229 2.0 4.0 0.00 0.00 0.00 69 1021.1
20260510035036 57 259 2.0 3.0 0.00 0.00 0.00 70 1021.2
20260510034531 57 256 1.0 4.0 0.00 0.00 0.00 70 1021.2
20260510034021 58 230 3.0 4.0 0.00 0.00 0.00 71 1021.1
20260510033530 58 238 0.0 0.0 0.00 0.00 0.00 69 1021.0
20260510033027 59 241 0.0 0.0 0.00 0.00 0.00 67 1021.0
20260510032519 59 163 0.0 0.0 0.00 0.00 0.00 64 1020.8
20260510032029 60 159 0.0 0.0 0.00 0.00 0.00 65 1020.8
20260510031545 61 151 0.0 0.0 0.00 0.00 0.00 58 1020.8
20260510031037 62 151 0.0 0.0 0.00 0.00 0.00 54 1020.8
20260510030524 62 151 0.0 0.0 0.00 0.00 0.00 52 1020.8
20260510030018 63 151 0.0 0.0 0.00 0.00 0.00 50 1020.6
20260510025529 63 151 0.0 0.0 0.00 0.00 0.00 52 1020.6
20260510025036 63 162 0.0 0.0 0.00 0.00 0.00 51 1020.7
20260510024538 63 169 0.0 0.0 0.00 0.00 0.00 49 1020.7
20260510024022 64 169 0.0 0.0 0.00 0.00 0.00 48 1020.8
20260510023533 64 169 0.0 0.0 0.00 0.00 0.00 48 1020.9
20260510023027 64 169 0.0 0.0 0.00 0.00 0.00 46 1020.9
20260510022537 64 169 0.0 1.0 0.00 0.00 0.00 47 1020.9
20260510022029 64 178 0.0 1.0 0.00 0.00 0.00 48 1021.0
20260510021531 64 175 0.0 1.0 0.00 0.00 0.00 49 1021.0
20260510021034 65 178 0.0 2.0 0.00 0.00 0.00 49 1021.1
20260510020524 66 169 0.0 3.0 0.00 0.00 0.00 44 1021.1
20260510020022 65 173 1.0 3.0 0.00 0.00 0.00 44 1021.0
20260510015532 65 173 0.0 2.0 0.00 0.00 0.00 48 1021.0
20260510015019 65 178 0.0 0.0 0.00 0.00 0.00 47 1021.1
20260510014534 66 192 0.0 1.0 0.00 0.00 0.00 45 1021.1
20260510014025 66 188 0.0 2.0 0.00 0.00 0.00 44 1021.1
20260510013536 67 102 0.0 2.0 0.00 0.00 0.00 44 1021.0
20260510013029 67 261 0.0 1.0 0.00 0.00 0.00 43 1021.0
20260510012520 67 173 0.0 1.0 0.00 0.00 0.00 44 1021.0
20260510012029 67 172 0.0 0.0 0.00 0.00 0.00 43 1021.1
20260510011524 67 221 0.0 0.0 0.00 0.00 0.00 41 1021.1
20260510011019 67 169 0.0 2.0 0.00 0.00 0.00 41 1021.1
20260510010526 68 184 0.0 0.0 0.00 0.00 0.00 41 1021.3
20260510010022 68 64 0.0 0.0 0.00 0.00 0.00 42 1021.4
20260510005532 67 168 0.0 0.0 0.00 0.00 0.00 43 1021.3
20260510005022 68 204 0.0 0.0 0.00 0.00 0.00 42 1021.4
20260510004544 68 281 0.0 2.0 0.00 0.00 0.00 42 1021.4
20260510004024 67 194 0.0 2.0 0.00 0.00 0.00 44 1021.5
20260510003535 67 286 0.0 2.0 0.00 0.00 0.00 42 1021.5
20260510003031 68 111 1.0 2.0 0.00 0.00 0.00 42 1021.5
20260510002521 68 174 0.0 1.0 0.00 0.00 0.00 41 1021.5
20260510002028 68 185 0.0 5.0 0.00 0.00 0.00 45 1021.5
20260510001524 67 222 1.0 5.0 0.00 0.00 0.00 43 1021.5
20260510001034 67 121 1.0 5.0 0.00 0.00 0.00 43 1021.4
20260510000524 67 76 1.0 5.0 0.00 0.00 0.00 42 1021.5
20260510000022 66 249 0.0 3.0 0.00 0.00 0.00 46 1021.4
20260509235531 66 121 0.0 3.0 0.00 0.00 0.00 47 1021.5
20260509235021 66 350 0.0 3.0 0.00 0.00 0.00 49 1021.6
20260509234519 66 124 0.0 5.0 0.00 0.00 0.00 48 1021.6
20260509234027 67 30 2.0 5.0 0.00 0.00 0.00 45 1021.6
20260509233536 67 131 1.0 4.0 0.00 0.00 0.00 45 1021.6
20260509233035 68 140 1.0 3.0 0.00 0.00 0.00 43 1021.6
20260509232524 68 60 0.0 4.0 0.00 0.00 0.00 44 1021.6
20260509232033 67 218 1.0 4.0 0.00 0.00 0.00 45 1021.6
20260509231528 67 77 1.0 4.0 0.00 0.00 0.00 46 1021.6
20260509231036 67 202 1.0 4.0 0.00 0.00 0.00 44 1021.5
20260509230526 67 317 1.0 4.0 0.00 0.00 0.00 44 1021.6
20260509230021 67 333 0.0 4.0 0.00 0.00 0.00 44 1021.7
20260509225534 67 302 1.0 6.0 0.00 0.00 0.00 43 1021.6
20260509225024 67 19 0.0 6.0 0.00 0.00 0.00 45 1021.7
20260509224522 67 332 1.0 6.0 0.00 0.00 0.00 42 1021.7
20260509224030 67 91 1.0 6.0 0.00 0.00 0.00 45 1021.7
20260509223520 67 45 1.0 7.0 0.00 0.00 0.00 43 1021.7
20260509223020 67 309 1.0 7.0 0.00 0.00 0.00 47 1021.8
20260509222532 67 327 1.0 3.0 0.00 0.00 0.00 44 1021.8
20260509222037 67 336 1.0 4.0 0.00 0.00 0.00 45 1021.8
20260509221533 67 355 1.0 6.0 0.00 0.00 0.00 43 1021.9
20260509221022 67 330 1.0 4.0 0.00 0.00 0.00 46 1022.0
20260509220531 66 317 1.0 4.0 0.00 0.00 0.00 46 1022.0
20260509220028 67 173 1.0 4.0 0.00 0.00 0.00 46 1022.1
20260509215519 67 355 1.0 6.0 0.00 0.00 0.00 45 1022.2
20260509215027 67 38 1.0 6.0 0.00 0.00 0.00 43 1022.3
20260509214523 67 347 1.0 2.0 0.00 0.00 0.00 45 1022.5
20260509214018 67 115 1.0 4.0 0.00 0.00 0.00 44 1022.5
20260509213530 67 173 1.0 4.0 0.00 0.00 0.00 43 1022.6
20260509213025 66 12 0.0 5.0 0.00 0.00 0.00 47 1022.6
20260509212535 66 182 1.0 5.0 0.00 0.00 0.00 44 1022.6
20260509212026 66 126 1.0 4.0 0.00 0.00 0.00 46 1022.6
20260509211526 66 303 1.0 7.0 0.00 0.00 0.00 46 1022.6
20260509211033 65 336 1.0 7.0 0.00 0.00 0.00 47 1022.7
20260509210523 65 311 1.0 3.0 0.00 0.00 0.00 46 1022.8
20260509210019 65 163 1.0 4.0 0.00 0.00 0.00 48 1022.8
20260509205528 65 108 1.0 5.0 0.00 0.00 0.00 49 1022.8
20260509205021 65 15 1.0 5.0 0.00 0.00 0.00 49 1022.8
20260509204534 65 71 1.0 3.0 0.00 0.00 0.00 47 1022.8
20260509204025 65 53 1.0 4.0 0.00 0.00 0.00 50 1022.8
20260509203533 64 274 2.0 5.0 0.00 0.00 0.00 52 1022.9
20260509203031 64 317 1.0 4.0 0.00 0.00 0.00 50 1022.9
20260509202527 64 342 1.0 9.0 0.00 0.00 0.00 48 1022.9
20260509202032 64 78 2.0 9.0 0.00 0.00 0.00 51 1023.0
20260509201529 64 345 1.0 5.0 0.00 0.00 0.00 53 1023.2
20260509201018 64 49 1.0 7.0 0.00 0.00 0.00 53 1023.2
20260509200529 63 172 2.0 7.0 0.00 0.00 0.00 52 1023.3
20260509200030 63 342 1.0 8.0 0.00 0.00 0.00 54 1023.4
20260509195536 63 169 1.0 6.0 0.00 0.00 0.00 51 1023.4
20260509195023 63 326 1.0 4.0 0.00 0.00 0.00 54 1023.3
20260509194520 63 341 1.0 8.0 0.00 0.00 0.00 53 1023.5
20260509194031 63 92 2.0 8.0 0.00 0.00 0.00 53 1023.6
20260509193519 63 360 2.0 7.0 0.00 0.00 0.00 55 1023.6
20260509193035 62 342 2.0 7.0 0.00 0.00 0.00 54 1023.7
20260509192525 63 297 1.0 4.0 0.00 0.00 0.00 53 1023.8
20260509192037 62 80 1.0 5.0 0.00 0.00 0.00 53 1023.9
20260509191535 62 327 2.0 5.0 0.00 0.00 0.00 56 1023.9
20260509191026 62 5 1.0 4.0 0.00 0.00 0.00 55 1024.1
20260509190536 62 210 2.0 5.0 0.00 0.00 0.00 55 1024.0
20260509190038 61 315 2.0 4.0 0.00 0.00 0.00 55 1023.9
20260509185522 61 19 1.0 4.0 0.00 0.00 0.00 55 1024.0
20260509185031 61 5 2.0 6.0 0.00 0.00 0.00 56 1024.1
20260509184533 61 350 2.0 6.0 0.00 0.00 0.00 56 1024.1
20260509184034 61 304 1.0 4.0 0.00 0.00 0.00 57 1024.1
20260509183523 61 306 2.0 4.0 0.00 0.00 0.00 56 1024.0
20260509183019 61 282 2.0 5.0 0.00 0.00 0.00 57 1024.0
20260509182529 60 338 2.0 8.0 0.00 0.00 0.00 57 1024.0
20260509182018 60 71 2.0 9.0 0.00 0.00 0.00 58 1024.1
20260509181537 60 320 2.0 9.0 0.00 0.00 0.00 58 1024.1
20260509181030 60 168 2.0 7.0 0.00 0.00 0.00 59 1023.9
20260509180520 59 22 2.0 7.0 0.00 0.00 0.00 58 1024.0
20260509180034 59 22 1.0 6.0 0.00 0.00 0.00 59 1024.1
20260509175526 59 288 2.0 5.0 0.00 0.00 0.00 57 1024.2
20260509175035 59 33 1.0 8.0 0.00 0.00 0.00 59 1024.1
20260509174530 59 294 2.0 8.0 0.00 0.00 0.00 58 1024.1
20260509174037 59 5 2.0 7.0 0.00 0.00 0.00 57 1024.0
20260509173527 58 163 1.0 7.0 0.00 0.00 0.00 59 1024.0
20260509173052 58 19 2.0 7.0 0.00 0.00 0.00 59 1024.1
20260509172532 58 186 2.0 7.0 0.00 0.00 0.00 59 1024.0
20260509172022 58 334 2.0 7.0 0.00 0.00 0.00 60 1024.0
20260509171528 58 360 2.0 7.0 0.00 0.00 0.00 61 1024.0
20260509171027 58 40 1.0 7.0 0.00 0.00 0.00 61 1024.0
20260509170522 57 341 1.0 6.0 0.00 0.00 0.00 62 1024.1
20260509170020 57 63 2.0 6.0 0.00 0.00 0.00 61 1024.0
20260509165527 57 252 1.0 5.0 0.00 0.00 0.00 61 1024.1
20260509165018 57 65 2.0 10.0 0.00 0.00 0.00 60 1024.2
20260509164536 56 35 3.0 10.0 0.00 0.00 0.00 60 1024.1
20260509164026 57 147 1.0 4.0 0.00 0.00 0.00 60 1024.1
20260509163534 56 203 2.0 4.0 0.00 0.00 0.00 59 1024.1
20260509163032 56 51 2.0 7.0 0.00 0.00 0.00 60 1024.2
20260509162524 56 313 1.0 8.0 0.00 0.00 0.00 59 1024.0
20260509162031 56 180 2.0 8.0 0.00 0.00 0.00 61 1024.1
20260509161527 55 343 2.0 7.0 0.00 0.00 0.00 60 1024.0
20260509161035 55 44 2.0 7.0 0.00 0.00 0.00 60 1024.0
20260509160525 55 338 2.0 5.0 0.00 0.00 0.00 62 1023.9
20260509160023 54 25 2.0 9.0 0.00 0.00 0.00 62 1023.9
20260509155530 54 146 3.0 9.0 0.00 0.00 0.00 62 1024.0
20260509155024 54 355 2.0 9.0 0.00 0.00 0.00 62 1023.9
20260509154522 54 355 2.0 7.0 0.00 0.00 0.00 62 1023.8
20260509154032 53 201 3.0 9.0 0.00 0.00 0.00 62 1023.7
20260509153522 53 15 2.0 9.0 0.00 0.00 0.00 64 1023.8
20260509153029 53 124 4.0 9.0 0.00 0.00 0.00 64 1023.7
20260509152527 53 308 3.0 9.0 0.00 0.00 0.00 64 1023.7
20260509152038 53 101 3.0 9.0 0.00 0.00 0.00 64 1023.6
20260509151530 52 19 3.0 11.0 0.00 0.00 0.00 63 1023.6
20260509151027 52 42 3.0 8.0 0.00 0.00 0.00 65 1023.5
20260509150530 52 133 3.0 8.0 0.00 0.00 0.00 63 1023.4
20260509150026 52 163 2.0 9.0 0.00 0.00 0.00 65 1023.4
20260509145537 52 355 2.0 9.0 0.00 0.00 0.00 65 1023.3
20260509145026 52 149 4.0 8.0 0.00 0.00 0.00 64 1023.3
20260509144524 52 360 2.0 11.0 0.00 0.00 0.00 64 1023.3
20260509144036 52 180 4.0 11.0 0.00 0.00 0.00 66 1023.2
20260509143529 52 88 3.0 8.0 0.00 0.00 0.00 66 1023.2
20260509143022 51 5 2.0 8.0 0.00 0.00 0.00 67 1023.2
20260509142531 51 70 2.0 7.0 0.00 0.00 0.00 67 1023.1
20260509142019 51 55 2.0 5.0 0.00 0.00 0.00 68 1023.1
20260509141538 51 284 1.0 4.0 0.00 0.00 0.00 69 1023.1
20260509141026 51 43 0.0 4.0 0.00 0.00 0.00 69 1023.1
20260509140537 50 5 1.0 4.0 0.00 0.00 0.00 67 1023.0
20260509140030 50 344 1.0 4.0 0.00 0.00 0.00 70 1023.0
20260509135521 50 51 1.0 4.0 0.00 0.00 0.00 70 1022.9
20260509135029 50 38 1.0 6.0 0.00 0.00 0.00 70 1022.7
20260509134526 50 309 1.0 6.0 0.00 0.00 0.00 68 1022.6
20260509134035 50 235 1.0 6.0 0.00 0.00 0.00 63 1022.5
20260509133527 50 277 1.0 7.0 0.00 0.00 0.00 63 1022.6
20260509133025 50 51 2.0 7.0 0.00 0.00 0.00 65 1022.5
20260509132534 49 5 3.0 7.0 0.00 0.00 0.00 66 1022.5
20260509132023 49 350 1.0 7.0 0.00 0.00 0.00 64 1022.4
20260509131519 49 36 2.0 7.0 0.00 0.00 0.00 64 1022.3
20260509131031 49 42 2.0 7.0 0.00 0.00 0.00 65 1022.3
20260509130521 49 148 2.0 7.0 0.00 0.00 0.00 65 1022.2
20260509130055 49 45 2.0 6.0 0.00 0.00 0.00 66 1022.1
20260509125524 49 303 2.0 6.0 0.00 0.00 0.00 66 1022.1
20260509125032 49 141 2.0 6.0 0.00 0.00 0.00 67 1022.0
20260509124534 49 31 2.0 7.0 0.00 0.00 0.00 64 1021.9
20260509124022 49 355 2.0 7.0 0.00 0.00 0.00 64 1021.9